Tracking 20621 objects as of 30-Mar-2020
HD Live streaming from Space Station
objects crossing your sky now

SL-12 R/B(2)

Track SL-12 R/B(2) now!


NORAD ID: 23111
Int'l Code: 1994-030D
Perigee: 34,643.5 km
Apogee: 35,001.6 km
Inclination: 13.8 °
Period: 1,386.8 minutes
Semi major axis: 41193 km
RCS: 2.2242 m2 (large)
Launch date: May 20, 1994
Source: Commonwealth of Independent States (former USSR) (CIS)
Launch site: TYURATAM MISSILE AND SPACE COMPLEX (TTMTR)

Note: This is a ROCKET BODY
aabbcc
Your satellite tracking list
Your tracking list is empty




NASA's NSSDC Master Catalog

Two Line Element Set (TLE):
1 23111U 94030D   20089.61287828 -.00000105 +00000-0 +00000-0 0  9992
2 23111 013.8017 002.4986 0043463 122.9594 046.0367 01.03838594098083
Source of the keplerian elements: AFSPC